Lid_Strength_Index
2 2 2 2 2 3 3 2 3 3 3 3 3 3 3 3 3 3 3 2 2 3 2 2 2 2 3 6 6 0 -2 -2 3 5 5 5 5 6 7 7 8 8 7 7 6 7 6
2 2 2 2 3 3 3 3 3 3 3 3 3 3 3 3 3 3 3 3 3 3 3 2 2 2 4 8 3 -0 0 4 5 5 6 5 5 5 6 7 7 7 6 7 6 6 6
3 3 3 3 3 3 3 3 3 3 3 3 3 3 3 4 3 3 3 3 3 3 3 2 2 2 6 6 2 1 3 4 4 5 5 5 4 5 6 7 6 6 8 7 7 7 7
3 3 3 3 4 4 4 4 4 4 4 3 3 3 4 4 4 3 3 3 3 3 3 2 1 3 6 4 2 2 3 4 4 4 4 4 4 5 6 6 7 7 7 10 8 7 7
3 3 3 4 4 4 4 4 4 4 4 4 4 4 4 4 4 4 3 4 3 3 2 1 3 5 6 2 3 1 3 4 4 4 4 4 5 6 6 7 8 8 9 9 10 7 7
3 4 4 4 4 4 4 4 4 4 4 4 4 4 4 4 4 4 4 4 1 1 1 1 2 6 4 4 3 3 2 3 4 5 5 6 6 7 7 7 10 9 9 9 10 8 8
4 4 4 4 4 4 4 4 4 4 4 4 4 4 4 4 4 4 5 5 7 5 3 6 6 7 6 4 3 4 2 3 4 5 7 7 7 9 8 7 8 8 9 9 10 9 9
5 5 5 5 5 5 5 4 5 4 4 4 4 4 4 4 4 4 5 7 6 6 7 6 4 5 4 3 5 4 3 5 6 8 7 8 9 7 7 8 8 8 10 12 10 9 9
5 5 5 5 5 5 5 5 5 4 4 4 4 4 4 4 5 5 7 7 5 5 7 7 7 6 5 4 5 5 4 6 7 8 8 9 8 7 8 8 9 9 9 12 12 10 9
5 5 5 5 5 4 5 5 5 5 5 4 4 4 4 5 6 7 7 5 4 5 9 8 7 6 4 4 6 3 4 5 7 8 8 8 7 8 8 9 7 9 7 9 11 11 14
5 5 5 5 5 4 4 5 5 5 5 5 5 4 5 5 7 7 6 5 4 5 15 8 6 4 4 5 5 5 5 5 7 8 7 8 8 8 8 8 7 8 8 9 10 11 12
5 5 5 5 5 4 4 4 4 5 4 5 5 5 5 6 6 5 5 4 4 9 15 8 6 7 6 6 6 6 6 5 6 7 7 7 6 7 7 8 7 6 8 8 10 9 12
4 5 4 5 5 4 4 4 4 4 5 5 4 5 6 6 8 5 5 4 9 13 8 9 8 7 7 7 7 7 7 7 8 9 9 8 8 7 7 8 7 8 8 11 12 12 13
4 4 4 4 4 4 4 4 4 5 5 5 5 5 6 6 5 5 5 7 13 11 10 7 7 8 8 7 7 7 8 9 7 7 9 10 11 8 7 7 8 9 8 11 15 14 12
4 4 4 4 4 4 4 4 4 4 5 5 5 6 6 4 5 5 6 10 10 10 8 8 8 10 8 8 8 8 8 8 7 6 9 10 10 7 7 7 7 9 9 9 11 12 12
5 4 4 4 4 4 4 4 4 4 4 5 7 7 5 3 3 5 7 10 9 8 6 7 10 9 10 9 9 9 9 7 7 6 6 8 11 8 8 7 8 8 9 11 10 14 15
5 5 5 4 3 4 4 4 4 4 4 5 7 7 4 4 3 5 10 9 8 6 6 8 9 10 9 10 8 9 8 7 6 7 6 7 9 9 7 8 9 9 10 10 9 10 13
5 5 5 5 4 4 4 4 4 4 5 5 7 8 4 3 6 7 8 7 8 6 5 7 7 8 8 8 9 9 8 7 6 6 7 7 9 11 10 7 7 8 9 9 11 13 12
5 5 5 5 4 4 4 4 4 4 4 6 8 8 3 5 9 8 7 7 6 7 6 7 8 7 6 8 10 8 8 6 6 6 7 7 10 13 11 9 7 9 9 9 9 10 13
5 5 5 5 5 4 4 4 4 4 4 5 6 9 5 6 6 7 9 8 8 6 7 6 7 6 7 8 8 9 8 7 6 6 6 6 9 10 13 10 9 10 9 9 9 13 11
5 5 5 5 5 4 4 4 4 3 4 5 6 8 7 10 8 9 9 8 9 9 6 7 7 7 8 10 9 9 8 8 7 6 6 7 10 9 9 9 9 9 9 9 10 9 11
5 5 5 5 5 4 4 4 4 3 4 6 8 9 7 7 8 9 9 9 9 8 8 8 8 8 7 9 8 9 8 8 8 7 7 7 11 9 11 9 9 10 9 9 9 9 9
5 5 4 4 5 4 4 4 4 3 4 7 7 7 8 7 8 9 9 9 9 8 7 7 8 8 8 8 7 6 6 6 6 7 8 9 10 11 13 10 10 12 9 9 9 8 8
5 5 5 4 4 4 4 4 4 3 4 6 7 8 9 10 9 8 9 9 9 8 9 8 7 8 6 5 5 5 6 6 6 7 7 10 10 11 13 11 16 10 7 8 9 8 7
4 4 5 4 4 4 4 4 4 4 3 5 5 7 9 11 9 10 8 8 8 8 8 7 6 5 5 6 8 9 9 9 9 8 8 7 9 13 15 14 12 10 8 9 9 9 7
4 4 4 4 4 4 3 3 4 3 3 4 5 5 8 10 10 8 9 8 8 9 8 7 5 5 5 8 10 13 13 11 12 11 7 8 8 12 13 15 16 10 7 6 6 11 6
4 4 4 4 4 3 3 3 3 3 3 4 5 5 7 10 7 6 8 8 7 8 9 8 9 7 5 9 12 12 12 10 13 12 12 11 11 13 14 14 12 7 6 6 12 10 6
4 4 3 3 3 3 3 3 3 3 3 4 5 5 7 10 9 8 7 8 8 8 10 7 8 7 8 11 11 12 12 11 11 10 11 12 13 13 12 14 16 6 6 9 7 6 5
3 3 3 3 3 3 3 3 3 3 3 3 7 5 4 9 9 6 6 6 7 7 9 8 8 10 7 10 9 10 12 10 11 14 9 12 10 12 11 11 7 5 6 5 4 5 5